Regional Weather Roundup
Issued by NWS

Home | Current Version | Previous Version | Graphics & Text | Print | Product List | Glossary On
Versions: 1 2 3 4 5 6 7 8 9 10 11 12 13 14 15 16 17 18 19 20 21 22 23 24 25 26 27 28 29 30 31 32 33 34 35 36 37 38 39 40 41 42 43 44 45 46 47 48 49 50
000
ASUS43 KMPX 290910
RWRMN
WEATHER ROUNDUP FOR MINNESOTA
NATIONAL WEATHER SERVICE TWIN CITIES/CHANHASSEN MN
300 AM CST SAT NOV 29 2014


NOTE: "FAIR" INDICATES FEW OR NO CLOUDS BELOW 12,000 FEET WITH NO
SIGNIFICANT WEATHER AND/OR OBSTRUCTIONS TO VISIBILITY. N/A MEANS
CURRENT SKY AND/OR WEATHER CONDITIONS ARE NOT AVAILABLE.

MNZ060>063-068>070-291000-
   Twin Cities Metro

CITY           SKY/WX    TMP DP  RH WIND       PRES   REMARKS
TWIN CITIES    MOCLDY    23  19  85 E8        29.59F WCI  14
ST PAUL        PTCLDY    24  20  84 E9        29.62F WCI  14
CRYSTAL        MOCLDY    25  20  81 SE7       29.57F WCI  17
BLAINE         PTCLDY    25  23  93 E7        29.58F WCI  17
LAKEVILLE      MOCLDY    18  16  93 E5        29.58F WCI  11
EDEN PRAIRIE   MOCLDY    24  20  84 E7        29.57F WCI  16
SOUTH ST PAUL  PTCLDY    25  21  86 CALM      29.60F
LAKE ELMO      FAIR      25  21  86 E5        29.61F WCI  19
$$
MNZ001>005-007-008-013>017-022>024-027-028-291000-
   Northwest Minnesota

CITY           SKY/WX    TMP DP  RH WIND       PRES   REMARKS
BEMIDJI        CLOUDY    18  15  88 SE7       29.51F WCI   8
HALLOCK        CLOUDY    19  14  79 SE5       29.52F WCI  13
ROSEAU         CLOUDY    18  12  79 CALM      29.53R
WARROAD        CLOUDY    18  12  79 SE6       29.52S WCI   9
THIEF RVR FALL CLOUDY    19  16  86 SE6       29.50S WCI  11
CROOKSTON      MOCLDY    19  16  86 S10       29.50F WCI   8
FOSSTON        MOCLDY    18  14  86 SE7       29.49F WCI   8
DETROIT LAKES  CLOUDY    21  19  93 S10       29.50F WCI  10
MOORHEAD       CLOUDY    21  21 100 SE15      29.49F FOG     WCI   8
PARK RAPIDS    CLOUDY    18  16  92 S7        29.51F WCI   9
MAHNOMEN       FAIR      20  17  87 S9        29.48F WCI   9
$$
MNZ006-009>011-018-025>026-291000-
   North Central Minnesota

CITY           SKY/WX    TMP DP  RH WIND       PRES   REMARKS
BAUDETTE       CLOUDY    17  12  80 SE6       29.51F WCI   9
FLAG ISLAND    CLOUDY    16  12  86 SE5       29.53S WCI   9
INTL FALLS     CLOUDY    18  13  80 SE6       29.55F WCI  10
WASKISH        CLOUDY    18  14  86 CALM      29.52F
BIG FORK       CLOUDY    19  14  79 CALM      29.55F
LONGVILLE      CLOUDY    19  16  86 S6        29.54F WCI  11
GRAND RAPIDS   CLOUDY    18  14  86 SE9       29.54S WCI   6
CRANE LAKE     CLOUDY    18  16  93 CALM      29.61F
ORR            CLOUDY    18  12  79 SE5       29.55S WCI  11
COOK             N/A     18  16  93 CALM      29.57S
WALKER         CLOUDY    18  15  87 S5        29.53S WCI  11
$$
MNZ012-019>021-037-291000-
   Northeast Minnesota

CITY           SKY/WX    TMP DP  RH WIND       PRES   REMARKS
DULUTH         CLOUDY    19  15  84 SE10      29.57F WCI   7
ELY            CLOUDY    18  16  93 S3        29.58F
HIBBING        CLOUDY    19  14  81 SE7       29.56F WCI  10
EVELETH        CLOUDY    21  18  86 SE7       29.57F WCI  13
DULUTH HARBOR  PTCLDY    21  18  86 CALM      29.65F
TWO HARBORS    CLOUDY    23  18  80 S3        29.59F
SILVER BAY     MOCLDY    21  19  93 CALM      29.59F
GRAND MARAIS     N/A     27  20  75 S9        29.67F WCI  18
G MARAIS ARPRT CLOUDY    18  16  93 S5        29.59F FOG     WCI  11
$$
MNZ029>031-032-039>041-046>048-054>057-064-291000-
   West Central Minnesota

CITY           SKY/WX    TMP DP  RH WIND       PRES   REMARKS
FERGUS FALLS   CLOUDY    21  18  86 SE13      29.52F WCI   9
WHEATON        MOCLDY    19  18  93 SE13      29.51F WCI   7
MORRIS         PTCLDY    21  19  93 SE12      29.50S FOG     WCI   9
ALEXANDRIA     CLOUDY    21  19  92 SE9       29.52F FOG     WCI  11
ELBOW LAKE     CLOUDY    21  19  93 SE7       29.51F WCI  12
WADENA         CLOUDY    18  16  93 SE3       29.52F
GLENWOOD       MOCLDY    19  19 100 SE5       29.53S FOG     WCI  13
APPLETON       PTCLDY    21  19  93 SE7       29.50F WCI  13
BENSON         PTCLDY    21  19  93 SE7G17    29.51F WCI  13
ORTONVILLE     MOCLDY    19  16  86 SE7       29.49S WCI  10
MADISON        PTCLDY    21  19  93 SE9       29.50F WCI  11
WILLMAR        FAIR      23  19  86 SE12      29.54F FOG     WCI  12
$$
MNZ033>034-036-042>043-049>051-058-059-291000-
   Central Minnesota

CITY           SKY/WX    TMP DP  RH WIND       PRES   REMARKS
ST CLOUD       MOCLDY    22  17  81 SE6       29.58S WCI  14
SAUK CENTRE    CLOUDY    21  19  92 SE8       29.54S WCI  12
PAYNESVILLE    MOCLDY    19  18  96 E7        29.55F WCI  10
AITKIN         CLOUDY    23  18  80 SE6       29.54F WCI  16
PINE RIVER     CLOUDY    19  16  86 SE7       29.58F WCI  10
BRAINERD       CLOUDY    19  16  88 SE7       29.55F WCI  10
STAPLES        CLOUDY    18  18 100 SE6       29.54S WCI   9
LONG PRAIRIE   CLOUDY    19  18  93 SE7       29.54S WCI  10
LITTLE FALLS   CLOUDY    21  18  86 SE7       29.56F WCI  13
LITCHFIELD     PTCLDY    21  21 100 E5        29.56S WCI  15
BUFFALO        MOCLDY    24  20  87 CALM      29.60R
MAPLE LAKE     MOCLDY    21  20  94 CALM      29.58S
$$
MNZ037-044-045-052-053-291000-
   East Central Minnesota

CITY           SKY/WX    TMP DP  RH WIND       PRES   REMARKS
PRINCETON      MOCLDY    21  18  86 E5        29.58F WCI  15
MORA             N/A    N/A N/A N/A MISG        N/A
CAMBRIDGE      MOCLDY    23  16  74 E6        29.57F WCI  16
RUSH CITY      MOCLDY    19  17  89 CALM      29.61F
MOOSE LAKE     CLOUDY    21  18  86 SE3       29.58F
HINCKLEY       CLOUDY    21  18  86 CALM      29.60F
CLOQUET        CLOUDY    18  16  93 SE3       29.58F
MCGREGOR       CLOUDY    21  19  93 SE8       29.57F WCI  12
$$
MNZ071>073-080-081-089-090-097-098-291000-
   Southwest Minnesota

CITY           SKY/WX    TMP DP  RH WIND       PRES   REMARKS
MONTEVIDEO     PTCLDY    19  19 100 S10       29.52F WCI   8
GRANITE FALLS  PTCLDY    19  17  93 SE9       29.53F WCI   8
CANBY          PTCLDY    15  14  95 SE6       29.49F WCI   6
MARSHALL       CLEAR     18  14  86 SE3       29.50S
REDWOOD FALLS  CLEAR     19  16  88 SE10      29.54F FOG     WCI   7
OLIVIA         PTCLDY    21  19  93 SE7       29.53F FOG     WCI  13
PIPESTONE      CLEAR     25  23  93 SE9       29.47F WCI  15
WINDOM         CLEAR     21  19  93 S5        29.52F FOG     WCI  15
WORTHINGTON    CLEAR     21  19  93 S9        29.50F WCI  11
JACKSON        CLEAR     23  21  93 S8        29.52F WCI  14
TRACY          CLEAR     24  23  93 S5        29.48F WCI  19
SLAYTON        CLEAR     18  18  98 S6        29.49F FOG     WCI  10
$$
MNZ065>067-074>077-082>085-091>093-291000-
   South Central Minnesota

CITY           SKY/WX    TMP DP  RH WIND       PRES   REMARKS
MANKATO        MOCLDY    25  19  80 SE12      29.55F WCI  14
NEW ULM        CLEAR     21  21 100 S8        29.55S FOG     WCI  12
ST JAMES       CLEAR     19  18  93 SE6       29.55F FOG     WCI  11
FAIRMONT       CLEAR     19  18  93 S10       29.53F WCI   8
GLENCOE        PTCLDY    21  19  95 E5        29.56S WCI  14
FARIBAULT      MOCLDY    27  25  93 SE8       29.57F WCI  18
OWATONNA       PTCLDY    28  25  86 SE16      29.56F WCI  17
WASECA         PTCLDY    27  23  86 SE12      29.58F FOG     WCI  16
ALBERT LEA     PTCLDY    23  23 100 S8        29.57F WCI  14
$$
MNZ078>079-086>088-094>096-291000-
   Southeast Minnesota

CITY           SKY/WX    TMP DP  RH WIND       PRES   REMARKS
ROCHESTER      MOCLDY    23  21  92 SE14      29.59F FOG     WCI  11
RED WING       PTCLDY    27  21  80 SE9       29.61F WCI  17
STANTON        MOCLDY    27  23  85 S10       29.57F WCI  17
DODGE CENTER   MOCLDY    25  25 100 SE12      29.57F FOG     WCI  14
WINONA         PTCLDY    25  23  93 S3        29.66F
AUSTIN         PTCLDY    25  23  93 SE5       29.58F FOG     WCI  19
PRESTON        MOCLDY    25  24  96 SE10      29.61F FOG     WCI  14
$$
ABBREVIATIONS USED IN REMARKS
   TC - TEMPERATURES IN CELSIUS
  WCI - WIND CHILL INDEX
   HX - HEAT INDEX
  VSB - VISIBILITY
$$



USA.gov is the U.S. government's official web portal to all federal, state and local government web resources and services.